Weather in Bebelevo

Russia / Kaluga Oblast     54°31′39″N   36°29′34″E
temp.,
°C
wind,
m/s
gust,
m/s
humid.,
%
clouds,
%
prec.,
mm/h
press.,
hPa
HPBL,
m
18 may, tue
tue1800:00+18ese5148496 0.0 1007410
03:00+15ese411905 0.0 1007221
06:00+16se39866 0.0 1007206
09:00+20se596778 0.0 1007409
12:00+24se6115551 0.0 1006763
15:00+25ese6125739 0.0 10051411
18:00+22ese7146491 0.0 1004984
21:00+19se615773 0.2 1004540
19 may, wed
wed1900:00+14sse22922 0.3 100516
03:00+14se379575 0.4 1005165
06:00+14se5119269 0.0 1005471
09:00+18sse587629 0.0 1007920
12:00+20se5765100 0.5 10071483
15:00+21sse586193 1.4 10061465
18:00+19sse3777100 0.6 1006547
21:00+15ese228999 1.1 100621
20 may, thu
thu2000:00+14ese3593100 0.4 100593
03:00+13e4109372 0.4 1003292
06:00+11ese6129391 0.0 1003683
09:00+13se7138595 0.0 10031038
12:00+14sse91383100 0.9 10031111
15:00+12sse61389100 1.6 1004931
18:00+12ssw71289100 0.1 1006955
21:00+11sw5118997 0.3 1008766
21 may, fri
fri2100:00+10sw5992100 0.0 1009533
03:00+9wsw4895100 0.4 1010596
06:00+9w4997100 0.8 1011587
09:00+10w4895100 1.1 1013598
12:00+13nw477842 0.1 1014955
15:00+18nnw465277 0.1 10141963
18:00+17nw246448 0.0 1015621
21:00+12wsw1168100 0.0 101710
22 may, sat
sat2200:00+11s1171100 0.0 101710
03:00+10ssw1177100 0.0 101810
06:00+11ene1179100 0.0 101823
09:00+15e2466100 0.0 1018411
12:00+16se3470100 0.1 1019732
15:00+15se4571100 0.1 1018885
18:00+15e357796 0.0 1018753
21:00+11e36953 0.0 1017136